Time,TemperatureF,DewpointF,PressureIn,WindDirection,WindDirectionDegrees,WindSpeedMPH,WindSpeedGustMPH,Humidity,HourlyPrecipIn,Conditions,Clouds,dailyrainin,SoftwareType,DateUTC
2013-04-10 00:06:00,44.8,44.0,29.71,NE,54,4.0,5.0,97,0.04,,,0.00,Wunderground v.1.15,2013-04-10 04:06:00,
2013-04-10 00:15:00,44.9,44.1,29.70,ENE,57,4.0,4.0,97,0.00,,,0.00,Wunderground v.1.15,2013-04-10 04:15:00,
2013-04-10 00:20:00,45.0,44.2,29.71,ENE,63,4.0,4.0,97,0.00,,,0.00,Wunderground v.1.15,2013-04-10 04:20:00,
2013-04-10 00:26:00,45.1,44.3,29.70,NE,46,3.0,4.0,97,0.00,,,0.00,Wunderground v.1.15,2013-04-10 04:26:00,
2013-04-10 00:36:00,45.2,44.4,29.71,NE,55,3.0,4.0,97,0.00,,,0.00,Wunderground v.1.15,2013-04-10 04:36:00,
2013-04-10 00:46:00,45.2,44.4,29.71,NE,49,2.0,3.0,97,0.00,,,0.00,Wunderground v.1.15,2013-04-10 04:46:00,
2013-04-10 00:56:00,45.3,44.5,29.70,NE,53,2.0,3.0,97,0.00,,,0.01,Wunderground v.1.15,2013-04-10 04:56:00,
2013-04-10 01:10:00,45.6,44.8,29.70,NE,55,4.0,4.0,97,0.04,,,0.02,Wunderground v.1.15,2013-04-10 05:10:00,
2013-04-10 01:16:00,45.7,44.9,29.70,NE,52,4.0,4.0,97,0.00,,,0.02,Wunderground v.1.15,2013-04-10 05:16:00,
2013-04-10 01:26:00,45.7,44.9,29.71,ENE,63,3.0,4.0,97,0.10,,,0.04,Wunderground v.1.15,2013-04-10 05:26:00,
2013-04-10 01:36:00,45.9,45.1,29.71,ENE,60,4.0,4.0,97,0.07,,,0.05,Wunderground v.1.15,2013-04-10 05:36:00,
2013-04-10 01:46:00,46.0,45.2,29.72,NE,47,2.0,3.0,97,0.04,,,0.05,Wunderground v.1.15,2013-04-10 05:46:00,
2013-04-10 02:06:00,46.0,45.2,29.72,NE,49,3.0,4.0,97,0.00,,,0.05,Wunderground v.1.15,2013-04-10 06:06:00,
2013-04-10 02:21:00,46.0,45.2,29.72,NE,49,2.0,2.0,97,0.00,,,0.05,Wunderground v.1.15,2013-04-10 06:21:00,
2013-04-10 02:26:00,46.0,45.2,29.71,NE,49,2.0,2.0,97,0.00,,,0.05,Wunderground v.1.15,2013-04-10 06:26:00,
2013-04-10 02:41:00,45.8,45.0,29.71,ENE,61,2.0,2.0,97,0.00,,,0.05,Wunderground v.1.15,2013-04-10 06:41:00,
2013-04-10 02:51:00,45.6,44.8,29.72,ENE,61,2.0,2.0,97,0.00,,,0.05,Wunderground v.1.15,2013-04-10 06:51:00,
2013-04-10 03:00:00,45.5,44.7,29.72,NNE,16,2.0,2.0,97,0.00,,,0.05,Wunderground v.1.15,2013-04-10 07:00:00,
2013-04-10 03:06:00,45.5,44.7,29.72,North,5,3.0,4.0,97,0.00,,,0.05,Wunderground v.1.15,2013-04-10 07:06:00,
2013-04-10 03:20:00,45.1,44.3,29.72,ENE,66,3.0,3.0,97,0.00,,,0.06,Wunderground v.1.15,2013-04-10 07:20:00,
2013-04-10 03:26:00,44.9,44.1,29.72,ENE,66,2.0,3.0,97,0.06,,,0.07,Wunderground v.1.15,2013-04-10 07:26:00,
2013-04-10 03:36:00,44.7,43.9,29.72,NNE,28,2.0,2.0,97,0.06,,,0.07,Wunderground v.1.15,2013-04-10 07:36:00,
2013-04-10 03:41:00,44.6,43.8,29.72,NE,40,2.0,2.0,97,0.04,,,0.07,Wunderground v.1.15,2013-04-10 07:41:00,
2013-04-10 03:56:00,44.1,43.3,29.72,ENE,65,2.0,3.0,97,0.00,,,0.07,Wunderground v.1.15,2013-04-10 07:56:00,
2013-04-10 04:01:00,44.1,43.3,29.72,ENE,65,2.0,2.0,97,0.00,,,0.08,Wunderground v.1.15,2013-04-10 08:01:00,
2013-04-10 04:06:00,44.0,43.2,29.72,ENE,65,2.0,2.0,97,0.00,,,0.08,Wunderground v.1.15,2013-04-10 08:06:00,
2013-04-10 04:16:00,43.8,43.0,29.73,ENE,64,1.0,2.0,97,0.00,,,0.08,Wunderground v.1.15,2013-04-10 08:16:00,
2013-04-10 04:26:00,43.6,42.8,29.73,North,355,2.0,4.0,97,0.00,,,0.08,Wunderground v.1.15,2013-04-10 08:26:00,
2013-04-10 04:36:00,43.3,42.5,29.74,NNE,22,2.0,2.0,97,0.00,,,0.08,Wunderground v.1.15,2013-04-10 08:36:00,
2013-04-10 04:41:00,43.1,42.3,29.74,NNE,22,1.0,1.0,97,0.00,,,0.08,Wunderground v.1.15,2013-04-10 08:41:00,
2013-04-10 04:56:00,42.7,41.9,29.73,NNE,22,1.0,2.0,97,0.00,,,0.08,Wunderground v.1.15,2013-04-10 08:56:00,
2013-04-10 05:06:00,42.6,41.8,29.73,NE,45,2.0,3.0,97,0.00,,,0.08,Wunderground v.1.15,2013-04-10 09:06:00,
2013-04-10 05:16:00,42.5,41.7,29.75,NNW,347,2.0,2.0,97,0.00,,,0.08,Wunderground v.1.15,2013-04-10 09:16:00,
2013-04-10 05:21:00,42.4,41.6,29.75,NNW,347,1.0,1.0,97,0.00,,,0.08,Wunderground v.1.15,2013-04-10 09:21:00,
2013-04-10 05:31:00,42.1,41.3,29.73,NNE,30,2.0,2.0,97,0.00,,,0.08,Wunderground v.1.15,2013-04-10 09:31:00,
2013-04-10 05:41:00,42.0,41.2,29.73,NNE,30,1.0,3.0,97,0.00,,,0.08,Wunderground v.1.15,2013-04-10 09:41:00,
2013-04-10 05:51:00,42.0,41.2,29.72,NE,56,3.0,3.0,97,0.00,,,0.08,Wunderground v.1.15,2013-04-10 09:51:00,
2013-04-10 06:01:00,42.0,41.2,29.72,ENE,64,3.0,3.0,97,0.00,,,0.08,Wunderground v.1.15,2013-04-10 10:01:00,
2013-04-10 06:06:00,42.1,41.3,29.73,NE,52,2.0,3.0,97,0.00,,,0.08,Wunderground v.1.15,2013-04-10 10:06:00,
2013-04-10 06:15:00,42.4,41.6,29.73,NE,53,1.0,3.0,97,0.00,,,0.08,Wunderground v.1.15,2013-04-10 10:15:00,
2013-04-10 06:31:00,42.9,42.4,29.74,ENE,69,2.0,2.0,98,0.00,,,0.08,Wunderground v.1.15,2013-04-10 10:31:00,
2013-04-10 06:41:00,43.0,42.5,29.75,ENE,69,1.0,1.0,98,0.00,,,0.08,Wunderground v.1.15,2013-04-10 10:41:00,
2013-04-10 06:51:00,43.1,42.6,29.74,ENE,69,1.0,2.0,98,0.00,,,0.08,Wunderground v.1.15,2013-04-10 10:51:00,
2013-04-10 07:00:00,43.2,42.7,29.75,ENE,69,0.0,0.0,98,0.00,,,0.08,Wunderground v.1.15,2013-04-10 11:00:00,
2013-04-10 07:11:00,43.3,42.8,29.75,ENE,69,0.0,0.0,98,0.00,,,0.08,Wunderground v.1.15,2013-04-10 11:11:00,
2013-04-10 07:21:00,43.5,43.0,29.74,ENE,71,2.0,2.0,98,0.00,,,0.08,Wunderground v.1.15,2013-04-10 11:21:00,
2013-04-10 07:30:00,43.6,43.1,29.75,ENE,71,1.0,2.0,98,0.00,,,0.08,Wunderground v.1.15,2013-04-10 11:30:00,
2013-04-10 07:36:00,43.7,43.2,29.75,ENE,71,2.0,2.0,98,0.00,,,0.08,Wunderground v.1.15,2013-04-10 11:36:00,
2013-04-10 07:46:00,43.7,43.2,29.76,ENE,71,1.0,2.0,98,0.00,,,0.08,Wunderground v.1.15,2013-04-10 11:46:00,
2013-04-10 08:00:00,43.9,43.4,29.75,ENE,71,2.0,3.0,98,0.00,,,0.08,Wunderground v.1.15,2013-04-10 12:00:00,
2013-04-10 08:06:00,44.0,43.5,29.75,NE,42,3.0,5.0,98,0.00,,,0.08,Wunderground v.1.15,2013-04-10 12:06:00,
2013-04-10 08:15:00,44.1,43.6,29.77,NE,39,4.0,5.0,98,0.00,,,0.08,Wunderground v.1.15,2013-04-10 12:15:00,
2013-04-10 08:21:00,44.1,43.6,29.77,ENE,61,4.0,4.0,98,0.00,,,0.08,Wunderground v.1.15,2013-04-10 12:21:00,
2013-04-10 08:31:00,44.3,43.8,29.76,ENE,64,4.0,4.0,98,0.00,,,0.08,Wunderground v.1.15,2013-04-10 12:31:00,
2013-04-10 08:41:00,44.4,43.9,29.77,NNE,23,4.0,4.0,98,0.00,,,0.08,Wunderground v.1.15,2013-04-10 12:41:00,
2013-04-10 08:51:00,44.5,44.0,29.77,NNE,24,4.0,4.0,98,0.00,,,0.08,Wunderground v.1.15,2013-04-10 12:51:00,
2013-04-10 09:01:00,44.3,43.8,29.77,NE,55,4.0,4.0,98,0.00,,,0.08,Wunderground v.1.15,2013-04-10 13:01:00,
2013-04-10 09:06:00,44.1,43.6,29.77,ENE,75,4.0,7.0,98,0.00,,,0.08,Wunderground v.1.15,2013-04-10 13:06:00,
2013-04-10 09:15:00,43.9,43.4,29.76,ENE,57,5.0,6.0,98,0.00,,,0.08,Wunderground v.1.15,2013-04-10 13:15:00,
2013-04-10 09:21:00,43.8,43.0,29.77,NE,35,5.0,5.0,97,0.00,,,0.08,Wunderground v.1.15,2013-04-10 13:21:00,
2013-04-10 09:31:00,43.4,42.6,29.76,NE,49,6.0,6.0,97,0.00,,,0.08,Wunderground v.1.15,2013-04-10 13:31:00,
2013-04-10 09:41:00,43.3,42.5,29.75,NNE,32,5.0,9.0,97,0.00,,,0.08,Wunderground v.1.15,2013-04-10 13:41:00,
2013-04-10 09:46:00,43.2,42.4,29.74,East,91,6.0,10.0,97,0.00,,,0.08,Wunderground v.1.15,2013-04-10 13:46:00,
2013-04-10 09:56:00,43.3,42.5,29.75,NE,46,6.0,6.0,97,0.00,,,0.08,Wunderground v.1.15,2013-04-10 13:56:00,
2013-04-10 10:06:00,43.4,42.6,29.75,NE,53,4.0,4.0,97,0.00,,,0.08,Wunderground v.1.15,2013-04-10 14:06:00,
2013-04-10 10:16:00,43.3,42.5,29.76,ENE,65,4.0,6.0,97,0.00,,,0.08,Wunderground v.1.15,2013-04-10 14:16:00,
2013-04-10 10:26:00,43.3,42.5,29.77,ENE,69,5.0,7.0,97,0.00,,,0.08,Wunderground v.1.15,2013-04-10 14:26:00,
2013-04-10 10:36:00,43.3,42.2,29.80,ENE,62,2.0,3.0,96,0.00,,,0.08,Wunderground v.1.15,2013-04-10 14:36:00,
2013-04-10 10:46:00,43.4,42.3,29.81,NE,40,1.0,4.0,96,0.56,,,0.13,Wunderground v.1.15,2013-04-10 14:46:00,
2013-04-10 10:56:00,43.1,42.0,29.75,NE,52,4.0,8.0,96,0.36,,,0.17,Wunderground v.1.15,2013-04-10 14:56:00,
2013-04-10 11:06:00,42.4,41.3,29.79,NNE,18,6.0,6.0,96,0.12,,,0.20,Wunderground v.1.15,2013-04-10 15:06:00,
2013-04-10 11:16:00,41.8,40.7,29.74,NE,40,7.0,9.0,96,0.07,,,0.21,Wunderground v.1.15,2013-04-10 15:16:00,
2013-04-10 11:26:00,41.5,40.4,29.77,NE,48,8.0,9.0,96,0.12,,,0.23,Wunderground v.1.15,2013-04-10 15:26:00,
2013-04-10 11:36:00,41.6,40.5,29.78,ENE,77,5.0,8.0,96,0.05,,,0.24,Wunderground v.1.15,2013-04-10 15:36:00,
2013-04-10 11:41:00,41.6,40.5,29.71,East,97,6.0,9.0,96,0.05,,,0.24,Wunderground v.1.15,2013-04-10 15:41:00,
2013-04-10 11:46:00,41.5,40.4,29.73,ENE,77,8.0,9.0,96,0.06,,,0.25,Wunderground v.1.15,2013-04-10 15:46:00,
2013-04-10 12:01:00,41.7,40.6,29.74,ENE,74,6.0,6.0,96,0.04,,,0.25,Wunderground v.1.15,2013-04-10 16:01:00,
2013-04-10 12:06:00,41.8,40.7,29.73,East,86,6.0,6.0,96,0.00,,,0.25,Wunderground v.1.15,2013-04-10 16:06:00,
2013-04-10 12:15:00,42.0,40.9,29.74,ENE,71,5.0,5.0,96,0.00,,,0.25,Wunderground v.1.15,2013-04-10 16:15:00,
2013-04-10 12:21:00,41.9,40.8,29.73,ENE,76,5.0,5.0,96,0.00,,,0.25,Wunderground v.1.15,2013-04-10 16:21:00,
2013-04-10 12:30:00,42.3,41.2,29.73,ENE,73,6.0,6.0,96,0.00,,,0.25,Wunderground v.1.15,2013-04-10 16:30:00,
2013-04-10 12:36:00,42.4,41.3,29.74,ENE,70,5.0,8.0,96,0.00,,,0.25,Wunderground v.1.15,2013-04-10 16:36:00,
2013-04-10 12:46:00,42.5,41.4,29.74,East,90,6.0,7.0,96,0.00,,,0.25,Wunderground v.1.15,2013-04-10 16:46:00,
2013-04-10 12:56:00,42.7,41.6,29.74,ENE,76,6.0,7.0,96,0.00,,,0.25,Wunderground v.1.15,2013-04-10 16:56:00,
2013-04-10 13:06:00,42.8,41.5,29.72,ENE,74,6.0,7.0,95,0.00,,,0.25,Wunderground v.1.15,2013-04-10 17:06:00,
2013-04-10 13:16:00,42.8,41.5,29.71,East,79,6.0,6.0,95,0.00,,,0.25,Wunderground v.1.15,2013-04-10 17:16:00,
2013-04-10 13:26:00,42.8,41.2,29.71,East,101,7.0,9.0,94,0.00,,,0.25,Wunderground v.1.15,2013-04-10 17:26:00,
2013-04-10 13:35:00,42.9,41.3,29.70,ENE,64,6.0,7.0,94,0.00,,,0.25,Wunderground v.1.15,2013-04-10 17:35:00,
2013-04-10 13:41:00,42.8,41.2,29.70,NE,39,6.0,6.0,94,0.00,,,0.25,Wunderground v.1.15,2013-04-10 17:41:00,
2013-04-10 13:51:00,42.8,40.9,29.71,ENE,77,7.0,8.0,93,0.00,,,0.25,Wunderground v.1.15,2013-04-10 17:51:00,
2013-04-10 14:01:00,43.0,41.4,29.70,East,79,6.0,6.0,94,0.00,,,0.25,Wunderground v.1.15,2013-04-10 18:01:00,
2013-04-10 14:06:00,42.8,40.9,29.71,ENE,78,5.0,11.0,93,0.00,,,0.25,Wunderground v.1.15,2013-04-10 18:06:00,
2013-04-10 14:15:00,42.5,40.3,29.71,NE,54,7.0,13.0,92,0.00,,,0.25,Wunderground v.1.15,2013-04-10 18:15:00,
2013-04-10 14:21:00,42.6,40.7,29.71,ENE,60,5.0,8.0,93,0.00,,,0.25,Wunderground v.1.15,2013-04-10 18:21:00,
2013-04-10 14:31:00,42.3,40.4,29.72,NE,54,8.0,8.0,93,0.00,,,0.25,Wunderground v.1.15,2013-04-10 18:31:00,
2013-04-10 14:46:00,42.1,40.5,29.68,ENE,64,6.0,10.0,94,0.00,,,0.25,Wunderground v.1.15,2013-04-10 18:46:00,
2013-04-10 14:56:00,41.9,40.6,29.67,East,80,7.0,8.0,95,0.00,,,0.26,Wunderground v.1.15,2013-04-10 18:56:00,
2013-04-10 15:06:00,41.7,40.4,29.67,East,80,9.0,13.0,95,0.00,,,0.26,Wunderground v.1.15,2013-04-10 19:06:00,
2013-04-10 15:15:00,41.5,40.2,29.69,NNE,17,8.0,10.0,95,0.00,,,0.26,Wunderground v.1.15,2013-04-10 19:15:00,
2013-04-10 15:26:00,41.3,40.0,29.66,NE,49,7.0,11.0,95,0.00,,,0.26,Wunderground v.1.15,2013-04-10 19:26:00,
2013-04-10 15:36:00,41.0,39.7,29.69,NNE,17,7.0,9.0,95,0.00,,,0.27,Wunderground v.1.15,2013-04-10 19:36:00,
2013-04-10 15:41:00,41.1,39.8,29.70,SSW,213,5.0,5.0,95,0.16,,,0.29,Wunderground v.1.15,2013-04-10 19:41:00,
2013-04-10 15:51:00,40.1,38.8,29.68,East,88,7.0,8.0,95,0.27,,,0.44,Wunderground v.1.15,2013-04-10 19:51:00,
2013-04-10 16:00:00,40.0,39.0,29.68,NE,55,7.0,7.0,96,0.18,,,0.46,Wunderground v.1.15,2013-04-10 20:00:00,
2013-04-10 16:06:00,39.9,38.9,29.67,East,86,8.0,9.0,96,0.07,,,0.46,Wunderground v.1.15,2013-04-10 20:06:00,
2013-04-10 16:16:00,40.1,39.1,29.63,ENE,77,8.0,13.0,96,0.06,,,0.47,Wunderground v.1.15,2013-04-10 20:16:00,
2013-04-10 16:26:00,40.3,39.5,29.63,NE,38,9.0,10.0,97,0.00,,,0.47,Wunderground v.1.15,2013-04-10 20:26:00,
2013-04-10 16:41:00,41.3,40.5,29.67,NE,36,8.0,8.0,97,0.00,,,0.47,Wunderground v.1.15,2013-04-10 20:41:00,
2013-04-10 16:51:00,41.4,40.6,29.67,East,81,7.0,7.0,97,0.00,,,0.47,Wunderground v.1.15,2013-04-10 20:51:00,
2013-04-10 17:01:00,41.3,40.5,29.68,ENE,63,7.0,7.0,97,0.00,,,0.47,Wunderground v.1.15,2013-04-10 21:01:00,
2013-04-10 17:06:00,41.3,40.5,29.68,ENE,62,7.0,7.0,97,0.18,,,0.50,Wunderground v.1.15,2013-04-10 21:06:00,
2013-04-10 17:16:00,41.4,40.6,29.69,ENE,72,5.0,7.0,97,0.05,,,0.50,Wunderground v.1.15,2013-04-10 21:16:00,
2013-04-10 17:21:00,41.5,40.7,29.69,ENE,62,4.0,8.0,97,0.00,,,0.50,Wunderground v.1.15,2013-04-10 21:21:00,
2013-04-10 17:30:00,41.6,40.8,29.69,ENE,60,5.0,9.0,97,0.00,,,0.50,Wunderground v.1.15,2013-04-10 21:30:00,
2013-04-10 17:36:00,41.6,40.8,29.69,ENE,57,6.0,9.0,97,0.00,,,0.50,Wunderground v.1.15,2013-04-10 21:36:00,
2013-04-10 17:46:00,41.5,40.7,29.68,NE,53,7.0,10.0,97,0.00,,,0.50,Wunderground v.1.15,2013-04-10 21:46:00,
2013-04-10 17:55:00,41.5,40.7,29.69,ENE,63,5.0,8.0,97,0.00,,,0.50,Wunderground v.1.15,2013-04-10 21:55:00,
2013-04-10 18:01:00,41.4,40.6,29.70,NNE,28,5.0,5.0,97,0.00,,,0.50,Wunderground v.1.15,2013-04-10 22:01:00,
2013-04-10 18:06:00,41.4,40.6,29.70,NE,41,5.0,5.0,97,0.00,,,0.50,Wunderground v.1.15,2013-04-10 22:06:00,
2013-04-10 18:16:00,41.3,40.5,29.73,North,5,3.0,4.0,97,0.00,,,0.50,Wunderground v.1.15,2013-04-10 22:16:00,
2013-04-10 18:26:00,41.2,40.4,29.73,NNE,22,4.0,4.0,97,0.00,,,0.50,Wunderground v.1.15,2013-04-10 22:26:00,
2013-04-10 18:36:00,41.2,40.4,29.74,North,5,4.0,5.0,97,0.00,,,0.50,Wunderground v.1.15,2013-04-10 22:36:00,
2013-04-10 18:46:00,41.1,40.3,29.74,NE,47,4.0,4.0,97,0.00,,,0.51,Wunderground v.1.15,2013-04-10 22:46:00,
2013-04-10 18:56:00,40.9,39.8,29.73,NE,37,4.0,4.0,96,0.07,,,0.52,Wunderground v.1.15,2013-04-10 22:56:00,
2013-04-10 19:06:00,40.8,39.7,29.72,ENE,58,4.0,4.0,96,0.04,,,0.52,Wunderground v.1.15,2013-04-10 23:06:00,
2013-04-10 19:15:00,40.6,39.8,29.71,NE,40,4.0,5.0,97,0.00,,,0.52,Wunderground v.1.15,2013-04-10 23:15:00,
2013-04-10 19:21:00,40.6,39.8,29.71,NNE,12,5.0,5.0,97,0.00,,,0.52,Wunderground v.1.15,2013-04-10 23:21:00,
2013-04-10 19:30:00,40.5,39.7,29.72,NNE,23,5.0,5.0,97,0.00,,,0.52,Wunderground v.1.15,2013-04-10 23:30:00,
2013-04-10 19:36:00,40.5,39.7,29.72,NE,44,4.0,5.0,97,0.00,,,0.52,Wunderground v.1.15,2013-04-10 23:36:00,
2013-04-10 19:41:00,40.4,39.6,29.73,ENE,59,4.0,4.0,97,0.00,,,0.52,Wunderground v.1.15,2013-04-10 23:41:00,
2013-04-10 19:56:00,40.4,39.4,29.72,North,355,4.0,5.0,96,0.00,,,0.52,Wunderground v.1.15,2013-04-10 23:56:00,
2013-04-10 20:06:00,40.4,39.4,29.72,ENE,59,4.0,5.0,96,0.00,,,0.52,Wunderground v.1.15,2013-04-11 00:06:00,
2013-04-10 20:16:00,40.4,39.4,29.71,NNE,15,4.0,4.0,96,0.00,,,0.52,Wunderground v.1.15,2013-04-11 00:16:00,
2013-04-10 20:26:00,40.4,39.4,29.71,NE,45,4.0,4.0,96,0.00,,,0.52,Wunderground v.1.15,2013-04-11 00:26:00,
2013-04-10 20:36:00,40.5,39.4,29.73,North,355,4.0,4.0,96,0.00,,,0.52,Wunderground v.1.15,2013-04-11 00:36:00,
2013-04-10 20:46:00,40.5,39.4,29.74,NNE,15,4.0,4.0,96,0.00,,,0.52,Wunderground v.1.15,2013-04-11 00:46:00,
2013-04-10 20:56:00,40.4,39.1,29.75,NE,36,3.0,3.0,95,0.00,,,0.52,Wunderground v.1.15,2013-04-11 00:56:00,
2013-04-10 21:06:00,40.4,39.1,29.77,NNE,28,2.0,4.0,95,0.00,,,0.52,Wunderground v.1.15,2013-04-11 01:06:00,
2013-04-10 21:16:00,40.5,39.2,29.77,NNE,32,2.0,2.0,95,0.00,,,0.52,Wunderground v.1.15,2013-04-11 01:16:00,
2013-04-10 21:25:00,40.5,38.9,29.78,NE,55,2.0,3.0,94,0.00,,,0.52,Wunderground v.1.15,2013-04-11 01:25:00,
2013-04-10 21:31:00,40.4,38.8,29.77,ENE,69,3.0,3.0,94,0.00,,,0.52,Wunderground v.1.15,2013-04-11 01:31:00,
2013-04-10 21:40:00,40.4,38.8,29.77,NE,44,3.0,4.0,94,0.00,,,0.52,Wunderground v.1.15,2013-04-11 01:40:00,
2013-04-10 21:46:00,40.3,38.7,29.77,NE,34,3.0,4.0,94,0.00,,,0.52,Wunderground v.1.15,2013-04-11 01:46:00,
2013-04-10 21:55:00,40.2,38.6,29.77,NE,46,3.0,6.0,94,0.00,,,0.52,Wunderground v.1.15,2013-04-11 01:55:00,
2013-04-10 22:01:00,40.2,38.3,29.76,NE,48,4.0,5.0,93,0.00,,,0.52,Wunderground v.1.15,2013-04-11 02:01:00,
2013-04-10 22:06:00,40.1,38.2,29.76,ENE,61,4.0,5.0,93,0.00,,,0.52,Wunderground v.1.15,2013-04-11 02:06:00,
2013-04-10 22:15:00,40.1,38.2,29.76,East,82,5.0,5.0,93,0.00,,,0.52,Wunderground v.1.15,2013-04-11 02:15:00,
2013-04-10 22:21:00,40.0,38.1,29.76,NE,54,4.0,4.0,93,0.00,,,0.52,Wunderground v.1.15,2013-04-11 02:21:00,
2013-04-10 22:30:00,40.0,38.1,29.77,East,97,2.0,2.0,93,0.00,,,0.52,Wunderground v.1.15,2013-04-11 02:30:00,
2013-04-10 22:36:00,39.9,38.0,29.76,East,95,1.0,3.0,93,0.00,,,0.52,Wunderground v.1.15,2013-04-11 02:36:00,
2013-04-10 22:46:00,40.0,38.1,29.76,ENE,72,3.0,5.0,93,0.00,,,0.52,Wunderground v.1.15,2013-04-11 02:46:00,
2013-04-10 22:56:00,40.0,38.1,29.77,East,88,2.0,3.0,93,0.00,,,0.52,Wunderground v.1.15,2013-04-11 02:56:00,
2013-04-10 23:06:00,40.1,38.2,29.78,East,88,1.0,1.0,93,0.00,,,0.52,Wunderground v.1.15,2013-04-11 03:06:00,
2013-04-10 23:15:00,40.1,38.2,29.78,East,88,0.0,1.0,93,0.00,,,0.52,Wunderground v.1.15,2013-04-11 03:15:00,
2013-04-10 23:21:00,40.1,38.2,29.78,East,88,0.0,0.0,93,0.00,,,0.52,Wunderground v.1.15,2013-04-11 03:21:00,
2013-04-10 23:31:00,40.0,38.4,29.77,East,88,0.0,0.0,94,0.00,,,0.52,Wunderground v.1.15,2013-04-11 03:31:00,
2013-04-10 23:41:00,40.0,38.4,29.75,East,88,1.0,2.0,94,0.00,,,0.52,Wunderground v.1.15,2013-04-11 03:41:00,
2013-04-10 23:51:00,39.9,38.3,29.76,East,88,1.0,1.0,94,0.00,,,0.52,Wunderground v.1.15,2013-04-11 03:51:00,